Regional Weather Roundup
Issued by NWS Green Bay, WI

Home | Current Version | Previous Version | Graphics & Text | Print | Product List | Glossary Off
Versions: 1 2 3 4 5 6 7 8 9 10 11 12 13 14 15 16 17 18 19 20 21 22 23 24 25 26 27 28 29 30 31 32 33 34 35 36 37 38 39 40 41 42 43 44 45 46 47 48 49 50

000
ASUS43 KGRB 121359
RWRGRB

NORTH-CENTRAL AND NORTHEAST WISCONSIN REGIONAL WEATHER ROUNDUP
NATIONAL WEATHER SERVICE GREEN BAY WI
900 AM CDT SAT JUL 12 2014

WIZ005-009-010>012-018-019-121500-
NORTH CENTRAL WISCONSIN

CITY           SKY/WX    TMP DP  RH WIND       PRES   REMARKS
IRONWOOD       PTSUNNY   70  63  78 NW6       29.98F
MANITOWISH WTR NOT AVBL
ARBOR VITAE    NOT AVBL
EAGLE RIVER    NOT AVBL
LAND O LAKES   NOT AVBL
RHINELANDER    CLOUDY    70  66  87 W5        30.04F
PHILLIPS       NOT AVBL
ANTIGO         NOT AVBL
TOMAHAWK       NOT AVBL
MERRILL        NOT AVBL
$$

WIZ013-073-121500-
NORTHEAST WISCONSIN

CITY           SKY/WX    TMP DP  RH WIND       PRES   REMARKS
IRON MOUNTAIN  PTSUNNY   73  66  78 W8        29.99F
MARINETTE      PTSUNNY   70  63  78 SW3       30.00S
$$

WIZ017-030-035>037-045-121500-
CENTRAL WISCONSIN

CITY           SKY/WX    TMP DP  RH WIND       PRES   REMARKS
MEDFORD        NOT AVBL
WAUSAU         CLOUDY    71  66  84 SW5       30.01S
MOSINEE        SUNNY     72  68  88 W3        30.04S
MARSHFIELD     CLOUDY    71  67  87 CALM      30.03R
WISC RAPIDS    CLOUDY    71  65  81 CALM      30.04R
STEVENS POINT  NOT AVBL
WAUPACA        NOT AVBL
SHAWANO        CLOUDY    72  63  73 S3        30.02S
CLINTONVILLE   NOT AVBL
$$

WIZ038-039-048-051-121500-
FOX VALLEY

CITY           SKY/WX    TMP DP  RH WIND       PRES   REMARKS
NWS GREEN BAY  CLOUDY    73  64  73 SW8       30.02F
APPLETON       CLOUDY    70  63  78 VRB3      30.04S
OSHKOSH        CLOUDY    72  65  78 S3        30.03S
FOND DU LAC    PTSUNNY   74  64  71 SW3       30.04S
$$

WIZ022-050-052-121500-
EAST CENTRAL WISCONSIN

CITY           SKY/WX    TMP DP  RH WIND       PRES   REMARKS
STURGEON BAY   CLOUDY    70  61  73 S5        30.02F
MANITOWOC      NOT AVBL
SHEBOYGAN      CLOUDY    69  63  81 CALM      30.04S
$$

LMZ563-521-522-541>543-121500-
LAKESHORE

STATION/POSITION TIME  TEMP    WIND        PRES    VSBY  WAVE
                       AIR SEA DIR/SP/G                  HT/PER
                 (UTC) (F)     (DEG/KT/KT) (MB)    (MI)  (FT/S)
SHEBOYGAN LKSHOR 1300   64     170/  4/  5 1017.3R
KEWAUNEE LKSHORE 1300   53     160/  3/  5 1017.5F
NORTHPORT PIER   1300   68     230/  3/  7 1016.3F
N MID LAKE BUOY  1300   57 55  210/ 12/ 14 1015.8F         2/ 4
MENOMINEE LKSHOR 1300   72     230/  5/  6 1016.6F
$$



USA.gov is the U.S. government's official web portal to all federal, state and local government web resources and services.